When you browse on this site, cookies collect data to enhance your experience and personalize the content and advertising you see.
Visit our Privacy Policy to learn more. By continuing to use the site, you agree to this use of cookies and data.
  • In Switzerland
  • List of Countries
  • For 7 days
  • Water Temperature
  • Satellite Maps
  • Weather Map
  • Weather Widgets
  • user-avatar
    Login

    Hourly Weather Prutz

    Today, 23 May, Thursday

    Time Temperature Precipitation Wind Pressure Humidity
    00:00 +3°C° 0 mm 1 mps 633 mmHg 95%
    01:00 +2°C° 0 mm 1 mps 633 mmHg 94%
    02:00 +2°C° 0 mm 1 mps 632 mmHg 93%
    03:00 +2°C° 0 mm 1 mps 632 mmHg 92%
    04:00 +1°C° 0 mm 1 mps 632 mmHg 91%
    05:00 +3°C° 0 mm 1 mps 633 mmHg 88%
    06:00 +5°C° 0 mm 1 mps 633 mmHg 85%
    07:00 +6°C° 0 mm 0 mps 634 mmHg 82%
    08:00 +8°C° 0 mm 1 mps 634 mmHg 79%
    09:00 +10°C° 0 mm 1 mps 634 mmHg 76%
    10:00 +11°C° 0 mm 1 mps 635 mmHg 73%
    11:00 +12°C° 0 mm 1 mps 635 mmHg 69%
    12:00 +13°C° 0 mm 1 mps 635 mmHg 66%
    13:00 +14°C° 0 mm 1 mps 635 mmHg 62%
    14:00 +14°C° 0 mm 2 mps 634 mmHg 63%
    15:00 +13°C° 0 mm 2 mps 634 mmHg 64%
    16:00 +13°C° 0 mm 2 mps 634 mmHg 66%
    17:00 +12°C° 0 mm 2 mps 633 mmHg 72%
    18:00 +10°C° 0 mm 2 mps 633 mmHg 79%
    19:00 +9°C° 0 mm 1 mps 632 mmHg 86%
    20:00 +8°C° 0 mm 1 mps 632 mmHg 89%
    21:00 +6°C° 0 mm 1 mps 632 mmHg 92%
    22:00 +5°C° 0 mm 1 mps 632 mmHg 95%
    23:00 +4°C° 0 mm 1 mps 632 mmHg 94%

    Tomorrow, 24 May, Friday

    Time Temperature Precipitation Wind Pressure Humidity
    00:00 +4°C° 0 mm 1 mps 632 mmHg 93%
    01:00 +4°C° 0 mm 1 mps 631 mmHg 92%
    02:00 +4°C° 0 mm 1 mps 631 mmHg 91%
    03:00 +4°C° 0 mm 1 mps 631 mmHg 90%
    04:00 +4°C° 0 mm 1 mps 631 mmHg 89%
    05:00 +6°C° 0 mm 1 mps 632 mmHg 84%
    06:00 +7°C° 0 mm 0 mps 632 mmHg 78%
    07:00 +9°C° 0 mm 0 mps 633 mmHg 73%
    08:00 +10°C° 0 mm 0 mps 633 mmHg 67%
    09:00 +13°C° 0 mm 1 mps 633 mmHg 61%
    10:00 +14°C° 0 mm 1 mps 634 mmHg 55%
    11:00 +15°C° 0 mm 1 mps 634 mmHg 54%
    12:00 +15°C° 0 mm 1 mps 634 mmHg 53%
    13:00 +16°C° 0 mm 2 mps 633 mmHg 51%
    14:00 +15°C° 0.1 mm 2 mps 633 mmHg 56%
    15:00 +15°C° 0.1 mm 2 mps 633 mmHg 60%
    16:00 +14°C° 0.1 mm 2 mps 632 mmHg 65%
    17:00 +13°C° 0.4 mm 2 mps 632 mmHg 72%
    18:00 +12°C° 0.4 mm 2 mps 631 mmHg 80%
    19:00 +11°C° 0.4 mm 1 mps 631 mmHg 87%
    20:00 +9°C° 0.4 mm 1 mps 631 mmHg 90%
    21:00 +8°C° 0.4 mm 1 mps 631 mmHg 92%
    22:00 +6°C° 0.4 mm 0 mps 631 mmHg 95%
    23:00 +6°C° 0.2 mm 0 mps 631 mmHg 95%

    Day after tomorrow, 25 May, Saturday

    Time Temperature Precipitation Wind Pressure Humidity
    00:00 +6°C° 0.2 mm 0 mps 631 mmHg 94%
    01:00 +5°C° 0.2 mm 0 mps 630 mmHg 94%
    02:00 +5°C° 0.1 mm 0 mps 630 mmHg 94%
    03:00 +5°C° 0.1 mm 0 mps 630 mmHg 94%
    04:00 +6°C° 0.1 mm 0 mps 630 mmHg 94%
    05:00 +7°C° 0.2 mm 0 mps 631 mmHg 90%
    06:00 +8°C° 0.2 mm 0 mps 631 mmHg 86%
    07:00 +10°C° 0.2 mm 0 mps 632 mmHg 82%
    08:00 +10°C° 0.5 mm 0 mps 632 mmHg 80%
    09:00 +12°C° 0.5 mm 1 mps 632 mmHg 78%
    10:00 +13°C° 0.5 mm 1 mps 633 mmHg 76%
    11:00 +12°C° 1.2 mm 1 mps 633 mmHg 79%
    12:00 +12°C° 1.2 mm 1 mps 632 mmHg 82%
    13:00 +12°C° 1.2 mm 1 mps 632 mmHg 84%
    14:00 +11°C° 1.7 mm 1 mps 632 mmHg 87%
    15:00 +11°C° 1.7 mm 1 mps 632 mmHg 90%
    16:00 +11°C° 1.7 mm 1 mps 632 mmHg 92%
    17:00 +10°C° 1.1 mm 1 mps 632 mmHg 94%
    18:00 +10°C° 1.1 mm 1 mps 632 mmHg 95%
    19:00 +10°C° 1.1 mm 1 mps 632 mmHg 96%
    20:00 +9°C° 0.6 mm 1 mps 632 mmHg 96%
    21:00 +7°C° 0.6 mm 0 mps 632 mmHg 96%
    22:00 +7°C° 0.6 mm 0 mps 632 mmHg 96%
    23:00 +7°C° 0.2 mm 0 mps 632 mmHg 96%

    26 May, Sunday

    Time Temperature Precipitation Wind Pressure Humidity
    00:00 +7°C° 0.2 mm 0 mps 632 mmHg 95%
    01:00 +7°C° 0.2 mm 0 mps 632 mmHg 95%
    02:00 +6°C° 0.1 mm 0 mps 632 mmHg 95%
    03:00 +6°C° 0.1 mm 0 mps 632 mmHg 95%
    04:00 +6°C° 0.1 mm 0 mps 631 mmHg 96%
    05:00 +8°C° 0.1 mm 1 mps 632 mmHg 95%
    06:00 +9°C° 0.1 mm 1 mps 632 mmHg 94%
    07:00 +10°C° 0.1 mm 1 mps 633 mmHg 93%
    08:00 +9°C° 0.1 mm 2 mps 633 mmHg 91%
    09:00 +10°C° 0.1 mm 2 mps 633 mmHg 88%
    10:00 +10°C° 0.1 mm 2 mps 633 mmHg 86%
    11:00 +12°C° 0.1 mm 2 mps 633 mmHg 81%
    12:00 +13°C° 0.1 mm 2 mps 633 mmHg 76%
    13:00 +14°C° 0.1 mm 2 mps 634 mmHg 71%
    14:00 +14°C° 0.1 mm 2 mps 633 mmHg 73%
    15:00 +14°C° 0.1 mm 2 mps 633 mmHg 74%
    16:00 +12°C° 0.1 mm 3 mps 633 mmHg 76%
    17:00 +12°C° 0.1 mm 3 mps 633 mmHg 81%
    18:00 +12°C° 0.1 mm 2 mps 632 mmHg 87%
    19:00 +10°C° 0.1 mm 2 mps 632 mmHg 92%
    20:00 +9°C° 0 mm 2 mps 632 mmHg 94%
    21:00 +9°C° 0 mm 1 mps 632 mmHg 96%
    22:00 +9°C° 0 mm 1 mps 632 mmHg 98%
    23:00 +8°C° 0 mm 1 mps 632 mmHg 97%

    27 May, Monday

    Time Temperature Precipitation Wind Pressure Humidity
    00:00 +8°C° 0 mm 1 mps 631 mmHg 97%
    01:00 +6°C° 0 mm 0 mps 631 mmHg 97%
    02:00 +6°C° 0 mm 0 mps 630 mmHg 96%
    03:00 +6°C° 0 mm 0 mps 630 mmHg 96%
    04:00 +5°C° 0 mm 0 mps 630 mmHg 95%
    05:00 +7°C° 0 mm 0 mps 630 mmHg 91%
    06:00 +9°C° 0 mm 1 mps 630 mmHg 88%
    07:00 +11°C° 0 mm 1 mps 631 mmHg 84%
    08:00 +11°C° 0.1 mm 1 mps 631 mmHg 81%
    09:00 +12°C° 0.1 mm 1 mps 631 mmHg 79%
    10:00 +13°C° 0.1 mm 2 mps 631 mmHg 76%
    11:00 +12°C° 0.5 mm 2 mps 631 mmHg 79%
    12:00 +12°C° 0.5 mm 2 mps 630 mmHg 82%
    13:00 +12°C° 0.5 mm 2 mps 630 mmHg 85%
    14:00 +12°C° 1.2 mm 2 mps 629 mmHg 86%
    15:00 +12°C° 1.2 mm 2 mps 629 mmHg 86%
    16:00 +12°C° 1.2 mm 2 mps 629 mmHg 87%
    17:00 +12°C° 0.7 mm 1 mps 629 mmHg 88%
    18:00 +11°C° 0.7 mm 1 mps 628 mmHg 89%
    19:00 +11°C° 0.7 mm 1 mps 628 mmHg 91%
    20:00 +10°C° 0.2 mm 1 mps 628 mmHg 93%
    21:00 +9°C° 0.2 mm 1 mps 628 mmHg 95%
    22:00 +8°C° 0.2 mm 1 mps 628 mmHg 97%
    23:00 +8°C° 0.1 mm 1 mps 627 mmHg 97%

    28 May, Tuesday

    Time Temperature Precipitation Wind Pressure Humidity
    00:00 +6°C° 0.1 mm 0 mps 627 mmHg 97%
    01:00 +6°C° 0.1 mm 0 mps 627 mmHg 97%
    02:00 +6°C° 0.7 mm 0 mps 627 mmHg 97%
    03:00 +6°C° 0.7 mm 0 mps 626 mmHg 96%
    04:00 +6°C° 0.7 mm 0 mps 626 mmHg 96%
    05:00 +7°C° 2 mm 1 mps 626 mmHg 96%
    06:00 +8°C° 2 mm 1 mps 627 mmHg 96%
    07:00 +8°C° 2 mm 1 mps 627 mmHg 96%
    08:00 +6°C° 2 mm 2 mps 627 mmHg 96%
    09:00 +6°C° 2 mm 2 mps 627 mmHg 96%
    10:00 +6°C° 2 mm 2 mps 627 mmHg 97%
    11:00 +6°C° 2 mm 2 mps 627 mmHg 96%
    12:00 +5°C° 2 mm 3 mps 627 mmHg 96%
    13:00 +5°C° 2 mm 3 mps 627 mmHg 95%
    14:00 +5°C° 1.6 mm 2 mps 627 mmHg 95%
    15:00 +5°C° 1.6 mm 2 mps 627 mmHg 94%
    16:00 +5°C° 1.6 mm 2 mps 627 mmHg 94%
    17:00 +5°C° 0.9 mm 2 mps 627 mmHg 95%
    18:00 +5°C° 0.9 mm 2 mps 627 mmHg 96%
    19:00 +4°C° 0.9 mm 2 mps 627 mmHg 96%
    20:00 +4°C° 0.6 mm 2 mps 627 mmHg 96%
    21:00 +5°C° 0.6 mm 1 mps 628 mmHg 96%
    22:00 +4°C° 0.6 mm 1 mps 628 mmHg 96%
    23:00 +4°C° 0.4 mm 1 mps 628 mmHg 96%
    Show more